Regional Weather Roundup
Issued by NWS

Home | Current Version | Previous Version | Text Only | Print | Product List | Glossary Off
Versions: 1 2 3 4 5 6 7 8 9 10 11 12 13 14 15 16 17 18 19 20 21 22 23 24 25 26 27 28 29 30 31 32 33 34 35 36 37 38 39 40 41 42 43 44 45 46 47 48 49 50

000
ASUS44 KMEG 010800
RWRTN
TENNESSEE HOURLY STATE WEATHER ROUNDUP
NATIONAL WEATHER SERVICE MEMPHIS TN
300 AM CDT TUE SEP 01 2015

TNZ002-004-019-021-049-052-054-088>092-010900-
WEST TENNESSEE

CITY           SKY/WX    TMP DP  RH WIND       PRES   REMARKS
MEMPHIS INTL   PTCLDY    76  68  76 S5        30.07S
NWS MEMPHIS      N/A     70 N/A N/A MISG        N/A
JACKSON        CLEAR     67  65  93 CALM      30.09R FOG
DYERSBURG      CLEAR     68  66  94 CALM      30.09S
UNION CITY       N/A    N/A N/A N/A CALM      30.08R VSB 3/4
PARIS          CLEAR     63  61  94 CALM      30.10S
LEXINGTON      CLEAR     64  64 100 CALM      30.09S
$$

TNZ008-025-027-028-033-062-065-066-010900-
NORTH MIDDLE TENNESSEE

CITY           SKY/WX    TMP DP  RH WIND       PRES   REMARKS
NASHVILLE      CLEAR     70  65  84 CALM      30.11S
CLARKSVILLE    CLEAR     65  63  93 CALM      30.10S FOG
COOKEVILLE     CLEAR     63  63 100 CALM      30.12S
CROSSVILLE     CLEAR     65  62  90 CALM      30.17S
$$

TNZ061-075-076-078-094-096-097-010900-
SOUTH MIDDLE TENNESSEE

CITY           SKY/WX    TMP DP  RH WIND       PRES   REMARKS
FAYETTEVILLE   CLEAR     64  64 100 CALM      30.12S
TULLAHOMA      CLEAR     64  63  94 CALM      30.14S
WINCHESTER     CLEAR     63  63 100 CALM      30.13R
COLUMBIA       CLEAR     66  66 100 CALM      30.10R
SHELBYVILLE    CLEAR     68  68 100 CALM      30.12S
$$

TNZ017-018-042-046-047-010900-
NORTHEAST TENNESSEE

CITY           SKY/WX    TMP DP  RH WIND       PRES   REMARKS
TRI CITIES     PTCLDY    65  64  97 CALM      30.15S FOG
$$

TNZ012-013-036-069-073-074-010900-
CENTRAL EAST TENNESSEE

CITY           SKY/WX    TMP DP  RH WIND       PRES   REMARKS
KNOXVILLE      PTCLDY    68  67  96 CALM      30.11S
OAK RIDGE      MOCLDY    68  65  90 CALM      30.13S
GATLINBURG     SUNNY     64  63  94 CALM      30.12R
$$

TNZ083-085-099-010900-
SOUTHEAST TENNESSEE

CITY           SKY/WX    TMP DP  RH WIND       PRES   REMARKS
CHATTANOOGA    CLEAR     69  67  93 CALM      30.11S
$$

SKY/WX REPORTED AS FAIR MEANS FEW OR NO CLOUDS BELOW
12 THOUSAND FEET.



USA.gov is the U.S. government's official web portal to all federal, state and local government web resources and services.